| time (UTC) | temp C | wind direction | speed KPH | gust KPH | rain 1hr cm | rain 24hr cm | rain mn cm | humidity % | barometer mb |
| 20260505041351 | 8 | 180 | 0.0 | 0.0 | 0.00 | 0.48 | 0.00 | 74 | 1003.9 |
| 20260505040849 | 8 | 180 | 0.0 | 0.0 | 0.00 | 0.48 | 0.00 | 72 | 1003.7 |
| 20260505040351 | 8 | 180 | 0.0 | 0.0 | 0.00 | 0.48 | 0.00 | 73 | 1003.6 |
| 20260505035848 | 8 | 180 | 0.0 | 0.0 | 0.00 | 0.48 | 0.00 | 72 | 1003.6 |
| 20260505035612 | 8 | 180 | 0.0 | 0.0 | 0.00 | 0.48 | 0.00 | 72 | 1003.5 |
| 20260505034848 | 8 | 180 | 0.0 | 0.0 | 0.00 | 0.48 | 0.00 | 72 | 1003.4 |
| 20260505034617 | 8 | 180 | 0.0 | 0.0 | 0.00 | 0.48 | 0.00 | 72 | 1003.4 |
| 20260505033848 | 8 | 180 | 0.0 | 0.0 | 0.00 | 0.48 | 0.00 | 73 | 1003.4 |
| 20260505033351 | 8 | 180 | 0.0 | 0.0 | 0.00 | 0.48 | 0.00 | 74 | 1003.3 |
| 20260505032848 | 8 | 180 | 0.0 | 0.0 | 0.00 | 0.48 | 0.00 | 74 | 1003.3 |
| 20260505032350 | 8 | 180 | 0.0 | 0.0 | 0.00 | 0.48 | 0.00 | 73 | 1003.3 |
| 20260505031847 | 8 | 180 | 0.0 | 0.0 | 0.00 | 0.48 | 0.00 | 73 | 1003.3 |
| 20260505031350 | 8 | 180 | 0.0 | 0.0 | 0.00 | 0.48 | 0.00 | 73 | 1003.3 |
| 20260505030847 | 8 | 180 | 0.0 | 0.0 | 0.00 | 0.48 | 0.00 | 72 | 1003.1 |
| 20260505030612 | 8 | 180 | 0.0 | 0.0 | 0.00 | 0.48 | 0.00 | 72 | 1003.2 |
| 20260505030109 | 8 | 180 | 0.0 | 0.0 | 0.00 | 0.48 | 0.00 | 72 | 1003.0 |
| 20260505025610 | 8 | 180 | 0.0 | 0.0 | 0.00 | 0.48 | 0.00 | 71 | 1002.9 |
| 20260505024847 | 8 | 180 | 0.0 | 0.0 | 0.00 | 0.48 | 0.00 | 71 | 1002.8 |
| 20260505024349 | 8 | 180 | 0.0 | 0.0 | 0.00 | 0.48 | 0.00 | 71 | 1002.8 |
| 20260505023848 | 8 | 180 | 0.0 | 0.0 | 0.00 | 0.48 | 0.00 | 70 | 1002.7 |
| 20260505023833 | 8 | 180 | 0.0 | 0.0 | 0.00 | 0.48 | 0.00 | 69 | 1002.7 |
| 20260505022848 | 8 | 180 | 0.0 | 0.0 | 0.00 | 0.48 | 0.00 | 68 | 1002.6 |
| 20260505022616 | 8 | 180 | 0.0 | 0.0 | 0.00 | 0.48 | 0.00 | 68 | 1002.6 |
| 20260505022116 | 8 | 180 | 0.0 | 0.0 | 0.00 | 0.48 | 0.00 | 68 | 1002.6 |
| 20260505021353 | 8 | 180 | 0.0 | 0.0 | 0.00 | 0.48 | 0.00 | 67 | 1002.4 |
| 20260505020848 | 9 | 180 | 0.0 | 0.0 | 0.00 | 0.48 | 0.00 | 66 | 1002.5 |
| 20260505020353 | 9 | 180 | 0.0 | 0.0 | 0.00 | 0.48 | 0.00 | 66 | 1002.4 |
| 20260505015848 | 9 | 180 | 0.0 | 0.0 | 0.00 | 0.48 | 0.00 | 65 | 1002.5 |
| 20260505015354 | 9 | 180 | 0.0 | 0.0 | 0.00 | 0.48 | 0.00 | 65 | 1002.5 |
| 20260505014847 | 9 | 180 | 0.0 | 0.0 | 0.00 | 0.48 | 0.00 | 65 | 1002.4 |
| 20260505014357 | 9 | 180 | 0.0 | 0.0 | 0.00 | 0.48 | 0.00 | 64 | 1002.4 |
| 20260505013847 | 9 | 180 | 0.0 | 0.0 | 0.00 | 0.48 | 0.00 | 64 | 1002.4 |
| 20260505013351 | 9 | 180 | 0.0 | 0.0 | 0.00 | 0.48 | 0.00 | 63 | 1002.3 |
| 20260505012847 | 9 | 180 | 0.0 | 0.0 | 0.00 | 0.48 | 0.00 | 64 | 1002.3 |
| 20260505012402 | 9 | 180 | 0.0 | 0.0 | 0.00 | 0.48 | 0.00 | 65 | 1002.3 |
| 20260505011846 | 9 | 180 | 0.0 | 0.0 | 0.00 | 0.48 | 0.00 | 64 | 1002.3 |
| 20260505011354 | 9 | 180 | 0.0 | 0.0 | 0.00 | 0.48 | 0.00 | 64 | 1002.2 |
| 20260505010846 | 9 | 180 | 0.0 | 0.0 | 0.00 | 0.48 | 0.00 | 64 | 1002.3 |
| 20260505010350 | 9 | 180 | 0.0 | 0.0 | 0.00 | 0.48 | 0.00 | 63 | 1002.3 |
| 20260505010115 | 9 | 180 | 0.0 | 0.0 | 0.00 | 0.48 | 0.00 | 63 | 1002.2 |
| 20260505005350 | 9 | 180 | 0.0 | 0.0 | 0.00 | 0.48 | 0.00 | 62 | 1002.2 |
| 20260505005113 | 9 | 180 | 0.0 | 0.0 | 0.00 | 0.48 | 0.00 | 61 | 1002.3 |
| 20260505004355 | 9 | 180 | 0.0 | 0.0 | 0.00 | 0.48 | 0.00 | 60 | 1002.2 |
| 20260505003852 | 9 | 180 | 0.0 | 0.0 | 0.00 | 0.48 | 0.00 | 63 | 1002.3 |
| 20260505003846 | 9 | 180 | 0.0 | 0.0 | 0.00 | 0.48 | 0.00 | 62 | 1002.3 |
| 20260505002845 | 9 | 180 | 0.0 | 0.0 | 0.00 | 0.48 | 0.00 | 61 | 1002.3 |
| 20260505002352 | 9 | 180 | 0.0 | 0.0 | 0.00 | 0.48 | 0.00 | 61 | 1002.3 |
| 20260505001845 | 9 | 180 | 0.0 | 0.0 | 0.00 | 0.48 | 0.00 | 60 | 1002.4 |
| 20260505001609 | 9 | 180 | 0.0 | 0.0 | 0.00 | 0.48 | 0.00 | 61 | 1002.3 |
| 20260505000845 | 9 | 180 | 0.0 | 0.0 | 0.00 | 0.48 | 0.00 | 60 | 1002.3 |
| 20260505000355 | 10 | 180 | 0.0 | 0.0 | 0.00 | 0.48 | 0.00 | 59 | 1002.3 |
| 20260504235845 | 10 | 180 | 0.0 | 0.0 | 0.00 | 0.48 | 0.00 | 61 | 1002.3 |
| 20260504235352 | 9 | 180 | 0.0 | 0.0 | 0.00 | 0.48 | 0.00 | 60 | 1002.4 |
| 20260504235105 | 10 | 180 | 0.0 | 0.0 | 0.00 | 0.48 | 0.00 | 60 | 1002.4 |
| 20260504234352 | 10 | 180 | 0.0 | 0.0 | 0.00 | 0.48 | 0.00 | 59 | 1002.4 |
| 20260504233844 | 10 | 180 | 0.0 | 0.0 | 0.00 | 0.48 | 0.00 | 58 | 1002.5 |
| 20260504233347 | 10 | 180 | 0.0 | 0.0 | 0.00 | 0.48 | 0.00 | 57 | 1002.5 |
| 20260504232843 | 10 | 180 | 0.0 | 0.0 | 0.00 | 0.48 | 0.00 | 57 | 1002.5 |
| 20260504232347 | 10 | 180 | 0.0 | 0.0 | 0.00 | 0.48 | 0.00 | 57 | 1002.5 |
| 20260504231844 | 10 | 180 | 0.0 | 0.0 | 0.00 | 0.48 | 0.00 | 57 | 1002.5 |
| 20260504231348 | 10 | 180 | 0.0 | 0.0 | 0.00 | 0.48 | 0.00 | 58 | 1002.6 |
| 20260504230844 | 10 | 180 | 0.0 | 0.0 | 0.00 | 0.48 | 0.00 | 58 | 1002.6 |
| 20260504230347 | 10 | 180 | 0.0 | 0.0 | 0.00 | 0.48 | 0.00 | 58 | 1002.7 |
| 20260504225844 | 10 | 180 | 0.0 | 0.0 | 0.00 | 0.48 | 0.00 | 59 | 1002.6 |
| 20260504225346 | 10 | 180 | 0.0 | 0.0 | 0.00 | 0.48 | 0.00 | 61 | 1002.6 |
| 20260504224843 | 10 | 180 | 0.0 | 0.0 | 0.00 | 0.48 | 0.00 | 61 | 1002.8 |
| 20260504224606 | 10 | 180 | 0.0 | 0.0 | 0.00 | 0.48 | 0.00 | 60 | 1002.8 |
| 20260504223843 | 10 | 180 | 0.0 | 0.0 | 0.00 | 0.48 | 0.00 | 59 | 1002.9 |
| 20260504223604 | 10 | 180 | 0.0 | 0.0 | 0.00 | 0.48 | 0.00 | 58 | 1002.9 |
| 20260504222843 | 10 | 180 | 0.0 | 0.0 | 0.00 | 0.48 | 0.00 | 58 | 1002.9 |
| 20260504222346 | 10 | 180 | 0.0 | 0.0 | 0.00 | 0.48 | 0.00 | 59 | 1002.9 |
| 20260504221843 | 10 | 180 | 0.0 | 0.0 | 0.00 | 0.48 | 0.00 | 61 | 1002.9 |
| 20260504221345 | 10 | 180 | 0.0 | 0.0 | 0.00 | 0.48 | 0.00 | 58 | 1003.1 |
| 20260504220843 | 10 | 180 | 0.0 | 0.0 | 0.00 | 0.48 | 0.00 | 61 | 1003.0 |
| 20260504220605 | 11 | 180 | 0.0 | 0.0 | 0.00 | 0.48 | 0.00 | 59 | 1003.1 |
| 20260504215843 | 11 | 180 | 0.0 | 0.0 | 0.00 | 0.48 | 0.48 | 59 | 1003.1 |
| 20260504215606 | 11 | 180 | 0.0 | 0.0 | 0.00 | 0.48 | 0.48 | 59 | 1003.2 |
| 20260504214841 | 11 | 180 | 0.0 | 0.0 | 0.00 | 0.48 | 0.48 | 59 | 1003.1 |
| 20260504214614 | 11 | 180 | 0.0 | 0.0 | 0.00 | 0.48 | 0.48 | 61 | 1003.1 |
| 20260504214105 | 10 | 180 | 0.0 | 0.0 | 0.00 | 0.48 | 0.48 | 64 | 1003.2 |
| 20260504213344 | 10 | 180 | 0.0 | 0.0 | 0.00 | 0.48 | 0.48 | 65 | 1003.1 |
| 20260504212842 | 10 | 180 | 0.0 | 0.0 | 0.00 | 0.48 | 0.48 | 65 | 1003.2 |
| 20260504212604 | 10 | 180 | 0.0 | 0.0 | 0.00 | 0.48 | 0.48 | 65 | 1003.2 |
| 20260504211842 | 11 | 180 | 0.0 | 0.0 | 0.00 | 0.48 | 0.48 | 64 | 1003.2 |
| 20260504211344 | 10 | 180 | 0.0 | 0.0 | 0.00 | 0.48 | 0.48 | 65 | 1003.1 |
| 20260504210841 | 11 | 180 | 0.0 | 0.0 | 0.00 | 0.48 | 0.48 | 66 | 1003.2 |
| 20260504210344 | 11 | 180 | 0.0 | 0.0 | 0.00 | 0.48 | 0.48 | 66 | 1003.1 |
| 20260504205841 | 11 | 180 | 0.0 | 0.0 | 0.00 | 0.48 | 0.48 | 66 | 1003.1 |
| 20260504205343 | 10 | 180 | 0.0 | 0.0 | 0.00 | 0.48 | 0.48 | 68 | 1003.1 |
| 20260504204841 | 10 | 180 | 0.0 | 0.0 | 0.00 | 0.48 | 0.48 | 68 | 1003.1 |
| 20260504204344 | 10 | 180 | 0.0 | 0.0 | 0.00 | 0.48 | 0.48 | 68 | 1003.1 |
| 20260504204104 | 11 | 180 | 0.0 | 0.0 | 0.00 | 0.48 | 0.48 | 69 | 1003.1 |
| 20260504203343 | 10 | 180 | 0.0 | 0.0 | 0.00 | 0.48 | 0.48 | 69 | 1003.2 |
| 20260504202840 | 10 | 180 | 0.0 | 0.0 | 0.00 | 0.48 | 0.48 | 70 | 1003.1 |
| 20260504202604 | 10 | 180 | 0.0 | 0.0 | 0.00 | 0.48 | 0.48 | 72 | 1003.2 |
| 20260504201840 | 10 | 180 | 0.0 | 0.0 | 0.00 | 0.48 | 0.48 | 71 | 1003.1 |
| 20260504201343 | 10 | 180 | 0.0 | 0.0 | 0.00 | 0.48 | 0.48 | 71 | 1003.2 |
| 20260504200840 | 10 | 180 | 0.0 | 0.0 | 0.00 | 0.48 | 0.48 | 71 | 1003.2 |
| 20260504200343 | 11 | 180 | 0.0 | 0.0 | 0.00 | 0.48 | 0.48 | 71 | 1003.1 |
| 20260504195342 | 11 | 180 | 0.0 | 0.0 | 0.00 | 0.48 | 0.48 | 71 | 1003.1 |
| 20260504194840 | 11 | 180 | 0.0 | 0.0 | 0.00 | 0.48 | 0.48 | 71 | 1003.1 |
| 20260504194343 | 11 | 180 | 0.0 | 0.0 | 0.00 | 0.48 | 0.48 | 71 | 1003.1 |
| 20260504193839 | 10 | 180 | 0.0 | 0.0 | 0.00 | 0.48 | 0.48 | 71 | 1003.1 |
| 20260504193342 | 10 | 180 | 0.0 | 0.0 | 0.00 | 0.48 | 0.48 | 73 | 1003.1 |
| 20260504192840 | 10 | 180 | 0.0 | 0.0 | 0.00 | 0.48 | 0.48 | 72 | 1003.1 |
| 20260504192342 | 10 | 180 | 0.0 | 0.0 | 0.00 | 0.48 | 0.48 | 72 | 1003.1 |
| 20260504191839 | 10 | 180 | 0.0 | 0.0 | 0.00 | 0.48 | 0.48 | 73 | 1003.1 |
| 20260504191342 | 10 | 180 | 0.0 | 0.0 | 0.00 | 0.48 | 0.48 | 74 | 1003.1 |
| 20260504190839 | 10 | 180 | 0.0 | 0.0 | 0.00 | 0.48 | 0.48 | 73 | 1003.1 |
| 20260504190602 | 11 | 180 | 0.0 | 0.0 | 0.00 | 0.48 | 0.48 | 73 | 1003.1 |
| 20260504185838 | 11 | 180 | 0.0 | 0.0 | 0.00 | 0.48 | 0.48 | 73 | 1003.1 |
| 20260504185342 | 11 | 180 | 0.0 | 0.0 | 0.00 | 0.48 | 0.48 | 72 | 1003.1 |
| 20260504184838 | 11 | 180 | 0.0 | 0.0 | 0.00 | 0.48 | 0.48 | 72 | 1003.1 |
| 20260504184341 | 11 | 180 | 0.0 | 0.0 | 0.00 | 0.48 | 0.48 | 71 | 1003.1 |
| 20260504183839 | 11 | 180 | 0.0 | 0.0 | 0.00 | 0.48 | 0.48 | 70 | 1003.1 |
| 20260504183337 | 11 | 180 | 0.0 | 0.0 | 0.00 | 0.48 | 0.48 | 70 | 1003.1 |
| 20260504182835 | 11 | 180 | 0.0 | 0.0 | 0.00 | 0.48 | 0.48 | 69 | 1003.0 |
| 20260504182337 | 11 | 180 | 0.0 | 0.0 | 0.00 | 0.48 | 0.48 | 70 | 1003.0 |
| 20260504181834 | 11 | 180 | 0.0 | 0.0 | 0.00 | 0.48 | 0.48 | 69 | 1003.1 |
| 20260504181559 | 11 | 180 | 0.0 | 0.0 | 0.00 | 0.48 | 0.48 | 68 | 1003.0 |
| 20260504180835 | 11 | 180 | 0.0 | 0.0 | 0.00 | 0.48 | 0.48 | 67 | 1003.0 |
| 20260504180337 | 11 | 180 | 0.0 | 0.0 | 0.00 | 0.48 | 0.48 | 67 | 1003.0 |
| 20260504180055 | 11 | 180 | 0.0 | 0.0 | 0.00 | 0.48 | 0.48 | 68 | 1002.9 |
| 20260504175337 | 11 | 180 | 0.0 | 0.0 | 0.00 | 0.48 | 0.48 | 69 | 1002.9 |
| 20260504174834 | 12 | 180 | 0.0 | 0.0 | 0.00 | 0.48 | 0.48 | 69 | 1002.8 |
| 20260504174337 | 12 | 180 | 0.0 | 0.0 | 0.00 | 0.48 | 0.48 | 69 | 1002.9 |
| 20260504173834 | 12 | 180 | 0.0 | 0.0 | 0.00 | 0.48 | 0.48 | 68 | 1002.9 |
| 20260504173337 | 12 | 180 | 0.0 | 0.0 | 0.00 | 0.48 | 0.48 | 68 | 1002.9 |
| 20260504172834 | 12 | 180 | 0.0 | 0.0 | 0.00 | 0.48 | 0.48 | 68 | 1002.9 |
| 20260504172336 | 12 | 180 | 0.0 | 0.0 | 0.00 | 0.48 | 0.48 | 67 | 1002.8 |
| 20260504171833 | 12 | 180 | 0.0 | 0.0 | 0.00 | 0.48 | 0.48 | 67 | 1002.7 |
| 20260504171336 | 12 | 180 | 0.0 | 0.0 | 0.00 | 0.48 | 0.48 | 67 | 1002.7 |
| 20260504170834 | 12 | 180 | 0.0 | 0.0 | 0.00 | 0.48 | 0.48 | 66 | 1002.6 |
| 20260504170602 | 12 | 180 | 0.0 | 0.0 | 0.00 | 0.48 | 0.48 | 66 | 1002.5 |
| 20260504160337 | 10 | 180 | 0.0 | 0.0 | 0.00 | 0.48 | 0.48 | 82 | 1002.3 |
| 20260504150834 | 9 | 180 | 0.0 | 0.0 | 0.00 | 0.48 | 0.48 | 83 | 1002.4 |
| 20260504150336 | 9 | 180 | 0.0 | 0.0 | 0.00 | 0.48 | 0.48 | 83 | 1002.4 |
| 20260504141332 | 9 | 180 | 0.0 | 0.0 | 0.00 | 0.48 | 0.48 | 83 | 1002.6 |
| 20260504140829 | 10 | 180 | 0.0 | 0.0 | 0.00 | 0.48 | 0.48 | 83 | 1002.6 |
| 20260504140331 | 10 | 180 | 0.0 | 0.0 | 0.00 | 0.48 | 0.48 | 83 | 1002.7 |
| 20260504130334 | 10 | 180 | 0.0 | 0.0 | 0.00 | 0.48 | 0.48 | 83 | 1003.1 |
| 20260504110337 | 8 | 180 | 0.0 | 4.8 | 0.00 | 0.51 | 0.48 | 84 | 1003.6 |
| 20260504100331 | 7 | 180 | 0.0 | 9.7 | 0.00 | 0.51 | 0.48 | 84 | 1003.8 |
| 20260504081539 | 6 | 180 | 4.8 | 14.5 | 0.03 | 0.51 | 0.48 | 85 | 1004.3 |
| 20260504081039 | 5 | 180 | 4.8 | 14.5 | 0.03 | 0.51 | 0.48 | 85 | 1004.3 |
| 20260504080539 | 5 | 180 | 4.8 | 14.5 | 0.03 | 0.51 | 0.48 | 85 | 1004.3 |
| 20260504050533 | 5 | 180 | 0.0 | 0.0 | 0.18 | 0.15 | 0.18 | 82 | 1006.0 |
| 20260504045534 | 5 | 180 | 0.0 | 0.0 | 0.15 | 0.03 | 0.13 | 79 | 1006.0 |